This demonstration page uses our WeatherBlox Daily Observations layout. Learn more.

Left ArrowRight Arrow

39.92423, -83.80882

Hourly Observations for July 7, 2021

Temp ( °F °C ) Dew Point ( °F °C ) Humidity (%) Winds ( mph kmh ) Pressure ( in mb ) Visibility ( mi km ) Precip ( " mm )
12:56 am 00:56 Clear 73 23 N/A N/A N N/A 30.04 1017 10 16 N/A
1:56 am 01:56 Clear 73 23 N/A N/A SW 6 9 30.04 1017 9 14 N/A
2:56 am 02:56 Clear 73 23 N/A N/A N N/A 30.03 1017 10 16 N/A
3:56 am 03:56 Clear 72 22 N/A N/A SW 3 6 30.02 1017 9 14 N/A
4:56 am 04:56 Clear 72 22 N/A N/A SSW 7 11 30.01 1016 9 14 N/A
5:56 am 05:56 Partly Cloudy 70 21 N/A N/A SW 3 6 30.01 1016 7 11 N/A
6:56 am 06:56 Hazy 72 22 N/A N/A SSW 3 6 30.02 1017 6 10 N/A
7:56 am 07:56 Hazy 73 23 N/A N/A SSW 5 7 30.02 1017 6 10 N/A
8:56 am 08:56 Sunny 76 24.4 74 23.3 94 94 SW 6 9 30.02 1017 9 14 N/A
9:56 am 09:56 Sunny 80 26.7 73 22.8 79 79 W 6 9 30.02 1017 10 16 N/A
10:56 am 10:56 Mostly Sunny 82 27.8 73 22.8 74 74 WSW 8 13 30.01 1016 10 16 N/A
11:56 am 11:56 Mostly Sunny 84 28.9 74 23.3 72 72 WSW 8 13 30.00 1016 10 16 N/A
12:56 pm 12:56 Cloudy 84 28.9 76 24.4 77 77 VRB 6 9 29.98 1015 10 16 N/A
1:56 pm 13:56 Partly Cloudy 86 30 74 23.3 67 67 SSW 9 15 29.96 1015 10 16 N/A
2:48 pm 14:48 Sunny with Nearby Thunderstorms 88 31 72 22 59 59 SSW 10 17 29.90 1013 10 16 N/A
2:56 pm 14:56 Sunny with Nearby Thunderstorms 87 30.6 72 22.2 61 61 SW 13 20 29.93 1014 10 16 N/A
3:32 pm 15:32 Mostly Cloudy 82 28 66 19 58 58 W 5 7 29.90 1013 10 16 N/A
3:56 pm 15:56 Mostly Sunny 87 30.6 72 22.2 61 61 SW 9 15 29.92 1013 10 16 N/A
4:56 pm 16:56 Sunny 87 30.6 68 20 53 53 SW 10 17 29.90 1013 10 16 N/A
5:56 pm 17:56 Sunny 87 30.6 68 20 53 53 SW 13 20 29.90 1012 10 16 N/A
6:56 pm 18:56 Partly Cloudy 83 28.3 69 20.6 63 63 SW 7 11 29.88 1012 10 16 N/A
7:53 pm 19:53 Cloudy with Thunderstorms 75 24 72 22 89 89 SW 16 26 29.90 1012 8 13 0.17 4.32
7:56 pm 19:56 Cloudy with Thunderstorms 75 23.9 71 21.7 88 88 SW 13 20 29.93 1014 10 16 0.17 4.32
8:09 pm 20:09 Cloudy with Nearby Thunderstorms 73 23 72 22 94 94 SSW 17 28 29.91 1013 8 13 0.01 0.25
8:54 pm 20:54 Mostly Cloudy with Nearby Thunderstorms 70 21 N/A N/A E 5 7 29.93 1013 10 16 0.08 2.03
8:56 pm 20:56 Mostly Cloudy with Nearby Thunderstorms 70 21 N/A N/A E 3 6 29.95 1014 10 16 0.08 2.03
9:15 pm 21:15 Partly Cloudy 72 22 N/A N/A SE 6 9 29.92 1013 10 16 N/A
9:56 pm 21:56 Clear 72 22 N/A N/A S 6 9 29.93 1014 10 16 0.01 0.25
10:56 pm 22:56 Cloudy 72 22 N/A N/A N N/A 29.94 1014 10 16 N/A
11:35 pm 23:35 Mostly Cloudy with Light Rain 72 22 N/A N/A S 5 7 29.91 1013 10 16 0.00 0.00
11:56 pm 23:56 Partly Cloudy with Light Rain 72 22 N/A N/A S 3 6 29.93 1014 10 16 0.00 0.00

Powered by AerisWeather